Zurück zum Katalog

STARLINK-3247

AktivKommunikationVLEO
NORAD 49747·PAYLOAD·🇺🇸 United States

Gestartet Dec 2, 2021 von Cape Canaveral Space Force Station

Loading…

Nächste Überflüge (nächste 24 Stunden)

TLE

AktuellSource: CelesTrak SupGP

Epoche: Sep 14, 2026, 14:07 UTC

1 49747C 21115Z   26257.58868056 -.00013494  00000+0 -73943-3 0  2577
2 49747  53.1636  19.3133 0001038  51.5776  48.1491 15.13707898    17

Verfolge STARLINK-3247 in Echtzeit mit AllMySat

Download on the App Store